Flag for Canada Weather past 2 weeks in Mississauga, Ontario, Canada

Now
66 °F

Overcast.


Feels Like: 66 °F
Forecast: 60 / 77 °F
Wind: 14 mph from Southwest

Location: Toronto Pearson International Airport

Current Time: May 28, 2015 at 12:53:20 AM

Latest Report: May 28, 2015 at 12:00 AM


Visibility: 15 mi

Pressure: 29.98 "Hg

Humidity: 83%

Dew point: 61 °F

Location of MississaugaLocation

Historic Weather in Mississauga — Graph

°F

Mississauga temperature yesterday

Maximum temperature yesterday: 84 °F (at 4:00 PM)
Minimum temperature yesterday: 64 °F (at 1:00 AM)
Average temperature yesterday: 73 °F

Past Weeks' High & Low Weather Summary

 TemperatureHumidityPressure
High84 °F (May 26, 3:00 PM)88% (May 19, 3:00 AM)30.49 "Hg (May 19, 3:00 AM)
Low36 °F (May 23, 5:03 AM)20% (May 23, 3:00 PM)29.83 "Hg (May 21, 5:00 PM)
Average61 °F55%30.10 "Hg
* Reported Midnight between May 12 and May 13 — Midnight between May 27 and May 28, Mississauga, Weather by CustomWeather, © 2015

Note: Actual official high and low records may vary slightly from our data, if they occured in-between our weather recording intervals... More about our weather records

Advertising

Mississauga weather history for previous 24 hours

 ConditionsComfort  
Time TempWeatherWind HumidityBarometerVisibility
12:00 AM
Thu, May 28
66 °FOvercast.14 mph83%29.98 "Hg15 mi
11:00 PM
Wed, May 27
68 °FMostly cloudy.15 mph78%29.97 "Hg15 mi
10:00 PM70 °FMostly cloudy.14 mph69%29.96 "Hg15 mi
9:00 PM72 °FPartly sunny.13 mph65%29.96 "Hg15 mi
8:00 PM72 °FBroken clouds.15 mph65%29.95 "Hg15 mi
7:00 PM75 °FMostly cloudy.25 mph54%29.95 "Hg15 mi
6:00 PM79 °FBroken clouds.20 mph54%29.93 "Hg15 mi
5:00 PM81 °FPartly sunny.28 mph48%29.91 "Hg15 mi
4:00 PM84 °FPartly sunny.25 mph43%29.91 "Hg15 mi
3:00 PM82 °FPartly sunny.24 mph45%29.93 "Hg15 mi
2:00 PM81 °FBroken clouds.18 mph51%29.94 "Hg15 mi
1:00 PM82 °FBroken clouds.20 mph48%29.95 "Hg15 mi
12:00 PM81 °FPartly sunny.16 mph51%29.96 "Hg15 mi
11:00 AM77 °FBroken clouds.16 mph61%29.96 "Hg15 mi
10:00 AM75 °FBroken clouds.18 mph65%29.97 "Hg15 mi
9:00 AM73 °FBroken clouds.16 mph69%29.97 "Hg15 mi
8:00 AM72 °FPartly sunny.16 mph73%29.96 "Hg15 mi
7:00 AM70 °FPartly sunny.12 mph83%29.94 "Hg15 mi
6:00 AM70 °FMostly cloudy.14 mph83%29.92 "Hg15 mi
5:00 AM70 °FPartly cloudy.13 mph83%29.92 "Hg15 mi
4:03 AM64 °FLight rain. Mostly cloudy.6 mph83%29.91 "Hg15 mi
3:00 AM66 °FPassing clouds.7 mph78%29.92 "Hg15 mi
2:00 AM64 °FPartly cloudy.7 mph83%29.92 "Hg15 mi
1:00 AM64 °FPartly cloudy.8 mph83%29.94 "Hg15 mi
12:00 AM66 °FPassing clouds.7 mph83%29.94 "Hg15 mi
Weather by CustomWeather, © 2015

See weather overviewHow to use our weather pages